Location: Taipo
(41.0000°S, 175.9500°E)
Time: 03:03:28
(UTC+00:00)

DELTA 2 R/B (1) - Pass Details

Date: 18 April 2024
Orbit: 789 x 801 km, 39.6° (Epoch: 22 May)

Event Time Altitude Azimuth Distance (km) Brightness Sun altitude
Exits shadow 16:03:45 48° 74° (ENE) 1,031 4.3 -32.0°
Drops below altitude 10° 16:07:45 10° 83° (E) 2,363 6.8 -31.2°
Sets 16:10:14 0° 84° (E) 3,291 7.8 -30.8°
